Time,TemperatureF,DewpointF,PressureIn,WindDirection,WindDirectionDegrees,WindSpeedMPH,WindSpeedGustMPH,Humidity,HourlyPrecipIn,Conditions,Clouds,dailyrainin,SoftwareType,DateUTC
2013-10-18 00:03:00,51.1,50.2,29.99,West,265,0.0,0.0,97,0.00,,,0.00,meteobridge,2013-10-18 04:03:00,
2013-10-18 00:08:00,51.3,50.4,29.99,West,265,2.0,2.9,97,0.00,,,0.00,meteobridge,2013-10-18 04:08:00,
2013-10-18 00:13:00,51.3,50.4,29.99,West,265,2.0,2.0,97,0.00,,,0.00,meteobridge,2013-10-18 04:13:00,
2013-10-18 00:18:00,51.3,50.4,29.98,West,265,0.0,2.0,97,0.00,,,0.00,meteobridge,2013-10-18 04:18:00,
2013-10-18 00:23:00,51.3,50.4,29.98,West,267,0.0,2.0,97,0.00,,,0.00,meteobridge,2013-10-18 04:23:00,
2013-10-18 00:29:00,51.3,50.4,29.98,West,265,0.0,0.0,97,0.00,,,0.00,meteobridge,2013-10-18 04:29:00,
2013-10-18 00:34:00,51.4,50.5,29.99,West,265,0.0,0.9,97,0.00,,,0.00,meteobridge,2013-10-18 04:34:00,
2013-10-18 00:39:00,51.4,50.5,29.99,West,265,0.9,0.9,97,0.00,,,0.00,meteobridge,2013-10-18 04:39:00,
2013-10-18 00:44:00,51.4,50.5,29.99,West,267,0.0,2.0,97,0.00,,,0.00,meteobridge,2013-10-18 04:44:00,
2013-10-18 00:49:00,51.4,50.5,29.99,SSW,203,2.9,4.0,97,0.00,,,0.00,meteobridge,2013-10-18 04:49:00,
2013-10-18 00:54:00,51.4,50.5,29.99,SSW,210,2.0,4.9,97,0.00,,,0.00,meteobridge,2013-10-18 04:54:00,
2013-10-18 00:59:00,51.4,50.4,29.98,SSW,206,0.0,2.0,96,0.00,,,0.00,meteobridge,2013-10-18 04:59:00,
2013-10-18 01:04:00,51.4,50.4,29.98,SSW,209,0.9,2.9,96,0.00,,,0.00,meteobridge,2013-10-18 05:04:00,
2013-10-18 01:09:00,51.4,50.4,29.98,SSW,206,2.0,2.9,96,0.00,,,0.00,meteobridge,2013-10-18 05:09:00,
2013-10-18 01:14:00,51.4,50.4,29.99,SSW,206,0.0,2.0,96,0.00,,,0.00,meteobridge,2013-10-18 05:14:00,
2013-10-18 01:20:00,51.4,50.4,29.99,WSW,241,2.0,2.9,96,0.00,,,0.00,meteobridge,2013-10-18 05:20:00,
2013-10-18 01:25:00,51.4,50.4,29.99,WSW,241,0.9,2.9,96,0.00,,,0.00,meteobridge,2013-10-18 05:25:00,
2013-10-18 01:30:00,51.4,50.4,29.99,WSW,241,0.9,2.0,96,0.00,,,0.00,meteobridge,2013-10-18 05:30:00,
2013-10-18 01:35:00,51.4,50.4,29.99,WSW,240,0.0,2.0,96,0.00,,,0.00,meteobridge,2013-10-18 05:35:00,
2013-10-18 01:40:00,51.3,50.2,29.99,WSW,241,0.0,2.9,96,0.00,,,0.00,meteobridge,2013-10-18 05:40:00,
2013-10-18 01:45:00,51.1,50.0,29.99,WSW,241,0.9,0.9,96,0.00,,,0.00,meteobridge,2013-10-18 05:45:00,
2013-10-18 01:50:00,51.1,50.0,29.99,WSW,241,0.0,0.0,96,0.00,,,0.00,meteobridge,2013-10-18 05:50:00,
2013-10-18 01:55:00,51.1,50.0,29.99,WSW,243,0.0,0.9,96,0.00,,,0.00,meteobridge,2013-10-18 05:55:00,
2013-10-18 02:00:00,50.7,49.6,29.99,WSW,243,0.0,0.0,96,0.00,,,0.00,meteobridge,2013-10-18 06:00:00,
2013-10-18 02:05:00,50.5,49.5,29.99,WSW,243,0.0,0.0,96,0.00,,,0.00,meteobridge,2013-10-18 06:05:00,
2013-10-18 02:10:00,50.4,49.3,29.99,WSW,243,0.0,0.9,96,0.00,,,0.00,meteobridge,2013-10-18 06:10:00,
2013-10-18 02:16:00,50.2,49.1,29.99,WSW,243,0.0,0.0,96,0.00,,,0.00,meteobridge,2013-10-18 06:16:00,
2013-10-18 02:21:00,50.2,49.1,29.99,WSW,243,0.0,0.0,96,0.00,,,0.00,meteobridge,2013-10-18 06:21:00,
2013-10-18 02:26:00,49.8,48.7,29.99,WSW,243,0.0,0.0,96,0.00,,,0.00,meteobridge,2013-10-18 06:26:00,
2013-10-18 02:31:00,49.8,48.7,30.00,WSW,243,0.0,0.0,96,0.00,,,0.00,meteobridge,2013-10-18 06:31:00,
2013-10-18 02:36:00,49.8,48.7,30.00,WSW,243,0.0,0.0,96,0.00,,,0.00,meteobridge,2013-10-18 06:36:00,
2013-10-18 02:41:00,49.8,48.9,30.00,WSW,243,0.0,0.0,97,0.00,,,0.00,meteobridge,2013-10-18 06:41:00,
2013-10-18 02:47:00,49.8,48.9,30.00,WSW,243,0.0,0.0,97,0.00,,,0.00,meteobridge,2013-10-18 06:47:00,
2013-10-18 02:52:00,49.8,48.9,30.00,WSW,243,0.0,0.0,97,0.00,,,0.00,meteobridge,2013-10-18 06:52:00,
2013-10-18 02:57:00,49.8,48.9,30.00,WSW,243,0.0,0.0,97,0.00,,,0.00,meteobridge,2013-10-18 06:57:00,
2013-10-18 03:02:00,49.8,48.9,30.00,WSW,243,0.0,0.0,97,0.00,,,0.00,meteobridge,2013-10-18 07:02:00,
2013-10-18 03:07:00,49.8,48.9,30.00,WSW,243,0.0,0.0,97,0.00,,,0.00,meteobridge,2013-10-18 07:07:00,
2013-10-18 03:12:00,49.8,48.9,30.00,WSW,243,0.0,0.0,97,0.00,,,0.00,meteobridge,2013-10-18 07:12:00,
2013-10-18 03:17:00,49.8,48.9,30.00,WSW,243,0.0,0.0,97,0.00,,,0.00,meteobridge,2013-10-18 07:17:00,
2013-10-18 03:22:00,49.8,48.9,30.00,WSW,243,0.0,0.0,97,0.00,,,0.00,meteobridge,2013-10-18 07:22:00,
2013-10-18 03:28:00,49.6,48.7,30.00,WSW,243,0.0,0.0,97,0.00,,,0.00,meteobridge,2013-10-18 07:28:00,
2013-10-18 03:33:00,49.6,48.7,29.99,WSW,243,0.0,0.9,97,0.00,,,0.00,meteobridge,2013-10-18 07:33:00,
2013-10-18 03:38:00,49.5,48.6,29.99,WSW,243,0.0,0.0,97,0.00,,,0.00,meteobridge,2013-10-18 07:38:00,
2013-10-18 03:43:00,49.3,48.4,29.99,WSW,243,0.0,0.0,97,0.00,,,0.00,meteobridge,2013-10-18 07:43:00,
2013-10-18 03:49:00,49.1,48.2,29.99,WSW,243,0.0,0.0,97,0.00,,,0.00,meteobridge,2013-10-18 07:49:00,
2013-10-18 03:54:00,48.7,47.8,29.99,WSW,243,0.0,0.0,97,0.00,,,0.00,meteobridge,2013-10-18 07:54:00,
2013-10-18 03:59:00,48.6,47.7,29.99,WSW,243,0.0,0.0,97,0.00,,,0.00,meteobridge,2013-10-18 07:59:00,
2013-10-18 04:04:00,48.6,47.7,29.99,WSW,243,0.0,0.0,97,0.00,,,0.00,meteobridge,2013-10-18 08:04:00,
2013-10-18 04:09:00,48.2,47.3,29.99,WSW,243,0.0,0.0,97,0.00,,,0.00,meteobridge,2013-10-18 08:09:00,
2013-10-18 04:15:00,47.8,46.9,29.99,WSW,243,0.0,0.0,97,0.00,,,0.00,meteobridge,2013-10-18 08:15:00,
2013-10-18 04:20:00,47.7,46.9,29.99,WSW,243,0.0,0.0,97,0.00,,,0.00,meteobridge,2013-10-18 08:20:00,
2013-10-18 04:25:00,47.3,46.6,29.99,WSW,243,0.0,0.0,97,0.00,,,0.00,meteobridge,2013-10-18 08:25:00,
2013-10-18 04:30:00,46.9,46.2,30.00,WSW,243,0.0,0.0,97,0.00,,,0.00,meteobridge,2013-10-18 08:30:00,
2013-10-18 04:35:00,46.8,46.0,30.00,WSW,243,0.0,0.0,97,0.00,,,0.00,meteobridge,2013-10-18 08:35:00,
2013-10-18 04:40:00,46.6,45.9,30.00,WSW,243,0.0,0.0,97,0.00,,,0.00,meteobridge,2013-10-18 08:40:00,
2013-10-18 04:46:00,46.4,45.7,30.00,WSW,243,0.0,0.0,97,0.00,,,0.00,meteobridge,2013-10-18 08:46:00,
2013-10-18 04:51:00,46.0,45.3,30.00,WSW,243,0.0,0.0,97,0.00,,,0.00,meteobridge,2013-10-18 08:51:00,
2013-10-18 04:56:00,45.9,45.1,30.00,WSW,243,0.0,0.0,97,0.00,,,0.00,meteobridge,2013-10-18 08:56:00,
2013-10-18 05:01:00,45.7,45.0,30.01,WSW,243,0.0,0.0,97,0.00,,,0.00,meteobridge,2013-10-18 09:01:00,
2013-10-18 05:06:00,45.5,44.8,30.01,WSW,243,0.0,0.0,97,0.00,,,0.00,meteobridge,2013-10-18 09:06:00,
2013-10-18 05:11:00,45.1,44.4,30.01,WSW,243,0.0,0.0,97,0.00,,,0.00,meteobridge,2013-10-18 09:11:00,
2013-10-18 05:17:00,45.1,44.6,30.01,WSW,243,0.0,0.0,98,0.00,,,0.00,meteobridge,2013-10-18 09:17:00,
2013-10-18 05:22:00,45.0,44.4,30.01,WSW,243,0.0,0.0,98,0.00,,,0.00,meteobridge,2013-10-18 09:22:00,
2013-10-18 05:27:00,44.8,44.2,30.01,WSW,243,0.0,0.0,98,0.00,,,0.00,meteobridge,2013-10-18 09:27:00,
2013-10-18 05:32:00,44.6,44.1,30.01,WSW,243,0.0,0.0,98,0.00,,,0.00,meteobridge,2013-10-18 09:32:00,
2013-10-18 05:37:00,44.4,43.9,30.01,WSW,243,0.0,0.0,98,0.00,,,0.00,meteobridge,2013-10-18 09:37:00,
2013-10-18 05:42:00,44.2,43.7,30.01,WSW,243,0.0,0.0,98,0.00,,,0.00,meteobridge,2013-10-18 09:42:00,
2013-10-18 05:47:00,44.2,43.7,30.02,WSW,243,0.0,0.0,98,0.00,,,0.00,meteobridge,2013-10-18 09:47:00,
2013-10-18 05:52:00,44.1,43.5,30.02,WSW,243,0.0,0.0,98,0.00,,,0.00,meteobridge,2013-10-18 09:52:00,
2013-10-18 05:58:00,44.1,43.5,30.02,WSW,243,0.0,0.0,98,0.00,,,0.00,meteobridge,2013-10-18 09:58:00,
2013-10-18 06:03:00,43.9,43.3,30.02,WSW,243,0.0,0.0,98,0.00,,,0.00,meteobridge,2013-10-18 10:03:00,
2013-10-18 06:08:00,43.5,43.0,30.02,WSW,243,0.0,0.0,98,0.00,,,0.00,meteobridge,2013-10-18 10:08:00,
2013-10-18 06:13:00,43.5,43.0,30.02,WSW,243,0.0,0.0,98,0.00,,,0.00,meteobridge,2013-10-18 10:13:00,
2013-10-18 06:18:00,43.3,42.8,30.02,WSW,243,0.0,0.0,98,0.00,,,0.00,meteobridge,2013-10-18 10:18:00,
2013-10-18 06:24:00,43.2,42.6,30.02,WSW,243,0.0,0.0,98,0.00,,,0.00,meteobridge,2013-10-18 10:24:00,
2013-10-18 06:29:00,43.2,42.6,30.02,WSW,243,0.0,0.0,98,0.00,,,0.00,meteobridge,2013-10-18 10:29:00,
2013-10-18 06:34:00,43.0,42.4,30.03,WSW,243,0.0,0.0,98,0.00,,,0.00,meteobridge,2013-10-18 10:34:00,
2013-10-18 06:39:00,42.8,42.3,30.03,WSW,243,0.0,0.0,98,0.00,,,0.00,meteobridge,2013-10-18 10:39:00,
2013-10-18 06:44:00,42.6,42.1,30.03,WSW,243,0.0,0.0,98,0.00,,,0.00,meteobridge,2013-10-18 10:44:00,
2013-10-18 06:50:00,42.6,42.1,30.03,WSW,243,0.0,0.0,98,0.00,,,0.00,meteobridge,2013-10-18 10:50:00,
2013-10-18 06:55:00,42.4,41.9,30.03,WSW,243,0.0,0.0,98,0.00,,,0.00,meteobridge,2013-10-18 10:55:00,
2013-10-18 07:00:00,42.4,41.9,30.03,WSW,243,0.0,0.0,98,0.00,,,0.00,meteobridge,2013-10-18 11:00:00,
2013-10-18 07:05:00,42.3,41.7,30.03,WSW,243,0.0,0.0,98,0.00,,,0.00,meteobridge,2013-10-18 11:05:00,
2013-10-18 07:10:00,42.3,42.1,30.03,WSW,243,0.0,0.0,99,0.00,,,0.00,meteobridge,2013-10-18 11:10:00,
2013-10-18 07:16:00,42.3,42.1,30.03,WSW,243,0.0,0.0,99,0.00,,,0.00,meteobridge,2013-10-18 11:16:00,
2013-10-18 07:21:00,42.3,41.7,30.03,WSW,243,0.0,0.0,98,0.00,,,0.00,meteobridge,2013-10-18 11:21:00,
2013-10-18 07:26:00,42.1,41.5,30.03,WSW,243,0.0,0.0,98,0.00,,,0.00,meteobridge,2013-10-18 11:26:00,
2013-10-18 07:31:00,41.9,41.7,30.03,WSW,243,0.0,0.0,99,0.00,,,0.00,meteobridge,2013-10-18 11:31:00,
2013-10-18 07:36:00,41.7,41.2,30.03,WSW,243,0.0,0.0,98,0.00,,,0.00,meteobridge,2013-10-18 11:36:00,
2013-10-18 07:41:00,41.5,41.0,30.03,WSW,243,0.0,0.0,98,0.00,,,0.00,meteobridge,2013-10-18 11:41:00,
2013-10-18 07:47:00,41.4,40.8,30.04,WSW,243,0.0,0.0,98,0.00,,,0.00,meteobridge,2013-10-18 11:47:00,
2013-10-18 07:52:00,41.4,41.2,30.04,WSW,243,0.0,0.0,99,0.00,,,0.00,meteobridge,2013-10-18 11:52:00,
2013-10-18 07:57:00,41.5,41.4,30.04,WSW,243,0.0,0.0,99,0.00,,,0.00,meteobridge,2013-10-18 11:57:00,
2013-10-18 08:02:00,41.5,41.4,30.04,WSW,243,0.0,0.0,99,0.00,,,0.00,meteobridge,2013-10-18 12:02:00,
2013-10-18 08:07:00,41.5,41.4,30.04,WSW,243,0.0,0.0,99,0.00,,,0.00,meteobridge,2013-10-18 12:07:00,
2013-10-18 08:12:00,41.5,41.4,30.04,WSW,243,0.0,0.0,99,0.00,,,0.00,meteobridge,2013-10-18 12:12:00,
2013-10-18 08:18:00,41.5,41.4,30.04,WSW,243,0.0,0.0,99,0.00,,,0.00,meteobridge,2013-10-18 12:18:00,
2013-10-18 08:23:00,41.5,41.4,30.04,WSW,243,0.0,0.0,99,0.00,,,0.00,meteobridge,2013-10-18 12:23:00,
2013-10-18 08:28:00,41.7,41.5,30.04,WSW,243,0.0,0.0,99,0.00,,,0.00,meteobridge,2013-10-18 12:28:00,
2013-10-18 08:33:00,42.3,42.1,30.05,WSW,243,0.0,0.0,99,0.00,,,0.00,meteobridge,2013-10-18 12:33:00,
2013-10-18 08:38:00,42.4,42.3,30.05,WSW,243,0.0,0.0,99,0.00,,,0.00,meteobridge,2013-10-18 12:38:00,
2013-10-18 08:43:00,43.2,43.2,30.05,WSW,243,0.0,0.0,100,0.00,,,0.00,meteobridge,2013-10-18 12:43:00,
2013-10-18 08:48:00,43.9,43.9,30.06,WSW,243,0.0,0.0,100,0.00,,,0.00,meteobridge,2013-10-18 12:48:00,
2013-10-18 08:53:00,44.2,44.2,30.06,WSW,243,0.0,0.0,100,0.00,,,0.00,meteobridge,2013-10-18 12:53:00,
2013-10-18 08:58:00,45.1,45.1,30.06,WSW,243,0.0,0.0,100,0.00,,,0.00,meteobridge,2013-10-18 12:58:00,
2013-10-18 09:04:00,45.7,45.7,30.06,WSW,243,0.0,0.0,100,0.00,,,0.00,meteobridge,2013-10-18 13:04:00,
2013-10-18 09:09:00,46.4,46.4,30.06,WSW,243,0.0,0.0,100,0.00,,,0.00,meteobridge,2013-10-18 13:09:00,
2013-10-18 09:14:00,47.3,47.3,30.07,WSW,243,0.0,0.0,100,0.01,,,0.01,meteobridge,2013-10-18 13:14:00,
2013-10-18 09:19:00,48.2,48.2,30.07,WSW,243,0.0,0.0,100,0.01,,,0.01,meteobridge,2013-10-18 13:19:00,
2013-10-18 09:24:00,48.9,48.9,30.07,WSW,243,0.0,0.0,100,0.01,,,0.01,meteobridge,2013-10-18 13:24:00,
2013-10-18 09:29:00,49.6,49.6,30.06,WSW,243,0.0,0.0,100,0.01,,,0.01,meteobridge,2013-10-18 13:29:00,
2013-10-18 09:35:00,50.2,50.2,30.06,WSW,243,0.0,0.0,100,0.01,,,0.01,meteobridge,2013-10-18 13:35:00,
2013-10-18 09:40:00,50.7,50.7,30.06,WSW,243,0.0,0.0,100,0.01,,,0.01,meteobridge,2013-10-18 13:40:00,
2013-10-18 09:45:00,51.1,51.1,30.07,WSW,243,0.0,0.0,100,0.01,,,0.01,meteobridge,2013-10-18 13:45:00,
2013-10-18 09:50:00,51.6,51.6,30.07,WSW,243,0.0,0.0,100,0.01,,,0.01,meteobridge,2013-10-18 13:50:00,
2013-10-18 09:55:00,52.0,52.0,30.07,WSW,243,0.0,0.0,100,0.01,,,0.01,meteobridge,2013-10-18 13:55:00,
2013-10-18 10:00:00,52.3,52.0,30.07,WSW,243,0.0,0.0,99,0.01,,,0.01,meteobridge,2013-10-18 14:00:00,
2013-10-18 10:05:00,52.9,52.5,30.07,WSW,241,0.0,2.9,99,0.01,,,0.01,meteobridge,2013-10-18 14:05:00,
2013-10-18 10:11:00,53.2,52.7,30.07,WSW,241,0.0,0.0,98,0.01,,,0.01,meteobridge,2013-10-18 14:11:00,
2013-10-18 10:16:00,53.8,52.9,30.07,WSW,243,2.0,2.0,97,0.00,,,0.01,meteobridge,2013-10-18 14:16:00,
2013-10-18 10:21:00,54.1,52.7,30.07,SSE,162,0.9,0.9,95,0.00,,,0.01,meteobridge,2013-10-18 14:21:00,
2013-10-18 10:26:00,54.7,52.7,30.07,SSE,162,0.9,2.9,93,0.00,,,0.01,meteobridge,2013-10-18 14:26:00,
2013-10-18 10:31:00,55.0,52.5,30.06,SSE,162,0.0,0.0,91,0.00,,,0.01,meteobridge,2013-10-18 14:31:00,
2013-10-18 10:36:00,55.8,52.0,30.06,West,267,0.0,2.9,87,0.00,,,0.01,meteobridge,2013-10-18 14:36:00,
2013-10-18 10:41:00,55.9,49.8,30.06,SSW,192,0.0,6.0,80,0.00,,,0.01,meteobridge,2013-10-18 14:41:00,
2013-10-18 10:47:00,55.9,49.1,30.06,WSW,256,0.0,4.9,78,0.00,,,0.01,meteobridge,2013-10-18 14:47:00,
2013-10-18 10:52:00,56.3,48.9,30.06,West,263,0.0,4.0,76,0.00,,,0.01,meteobridge,2013-10-18 14:52:00,
2013-10-18 10:57:00,57.0,49.1,30.06,West,263,0.0,0.0,75,0.00,,,0.01,meteobridge,2013-10-18 14:57:00,
2013-10-18 11:02:00,57.6,48.6,30.06,SW,234,0.0,0.9,72,0.00,,,0.01,meteobridge,2013-10-18 15:02:00,
2013-10-18 11:08:00,57.6,47.5,30.06,SW,223,0.9,6.0,69,0.00,,,0.01,meteobridge,2013-10-18 15:08:00,
2013-10-18 11:13:00,57.4,48.0,30.06,SW,222,0.9,0.9,71,0.00,,,0.01,meteobridge,2013-10-18 15:13:00,
2013-10-18 11:18:00,57.6,47.8,30.07,SW,230,0.0,4.0,70,0.00,,,0.01,meteobridge,2013-10-18 15:18:00,
2013-10-18 11:23:00,58.5,48.0,30.07,SW,236,0.0,2.9,68,0.00,,,0.01,meteobridge,2013-10-18 15:23:00,
2013-10-18 11:28:00,58.8,47.1,30.07,WSW,246,0.0,2.0,65,0.00,,,0.01,meteobridge,2013-10-18 15:28:00,
2013-10-18 11:33:00,58.8,46.6,30.06,WNW,296,0.9,2.9,64,0.00,,,0.01,meteobridge,2013-10-18 15:33:00,
2013-10-18 11:38:00,58.5,46.4,30.06,WNW,294,4.9,4.9,64,0.00,,,0.01,meteobridge,2013-10-18 15:38:00,
2013-10-18 11:44:00,58.6,46.9,30.06,NW,316,2.9,2.9,65,0.00,,,0.01,meteobridge,2013-10-18 15:44:00,
2013-10-18 11:49:00,59.4,47.1,30.06,WNW,294,0.0,4.9,64,0.00,,,0.01,meteobridge,2013-10-18 15:49:00,
2013-10-18 11:54:00,59.2,45.7,30.06,WNW,295,4.0,8.1,61,0.00,,,0.01,meteobridge,2013-10-18 15:54:00,
2013-10-18 11:59:00,58.8,46.2,30.06,NW,304,0.0,2.0,63,0.00,,,0.01,meteobridge,2013-10-18 15:59:00,
2013-10-18 12:04:00,59.5,46.0,30.06,SW,219,0.0,0.9,61,0.00,,,0.01,meteobridge,2013-10-18 16:04:00,
2013-10-18 12:09:00,60.3,45.5,30.06,West,277,0.9,6.0,58,0.00,,,0.01,meteobridge,2013-10-18 16:09:00,
2013-10-18 12:14:00,61.0,45.1,30.06,SE,137,0.0,4.9,56,0.00,,,0.01,meteobridge,2013-10-18 16:14:00,
2013-10-18 12:19:00,61.0,43.2,30.06,WSW,243,0.0,4.0,52,0.00,,,0.01,meteobridge,2013-10-18 16:19:00,
2013-10-18 12:24:00,60.6,43.3,30.06,SSE,165,2.9,4.9,53,0.00,,,0.01,meteobridge,2013-10-18 16:24:00,
2013-10-18 12:29:00,60.4,42.3,30.06,SW,234,2.0,6.0,51,0.00,,,0.01,meteobridge,2013-10-18 16:29:00,
2013-10-18 12:34:00,60.4,41.7,30.06,SSW,205,0.9,2.0,50,0.00,,,0.01,meteobridge,2013-10-18 16:34:00,
2013-10-18 12:39:00,60.6,43.3,30.06,South,185,2.0,2.9,53,0.00,,,0.01,meteobridge,2013-10-18 16:39:00,
2013-10-18 12:44:00,61.0,41.2,30.04,South,188,2.0,4.0,48,0.00,,,0.01,meteobridge,2013-10-18 16:44:00,
2013-10-18 12:50:00,61.5,41.7,30.04,SSW,203,0.0,0.0,48,0.00,,,0.01,meteobridge,2013-10-18 16:50:00,
2013-10-18 12:55:00,61.5,42.6,30.04,West,260,0.9,4.9,50,0.00,,,0.01,meteobridge,2013-10-18 16:55:00,
2013-10-18 13:00:00,61.9,41.4,30.04,NNW,335,0.0,0.9,47,0.00,,,0.01,meteobridge,2013-10-18 17:00:00,
2013-10-18 13:05:00,62.1,42.6,30.04,North,356,0.0,2.0,49,0.00,,,0.01,meteobridge,2013-10-18 17:05:00,
2013-10-18 13:10:00,62.4,43.0,30.04,WSW,258,0.9,6.0,49,0.00,,,0.01,meteobridge,2013-10-18 17:10:00,
2013-10-18 13:15:00,61.5,41.7,30.02,NNE,14,4.0,6.9,48,0.00,,,0.01,meteobridge,2013-10-18 17:15:00,
2013-10-18 13:20:00,61.2,40.8,30.02,North,6,0.0,6.9,47,0.00,,,0.01,meteobridge,2013-10-18 17:20:00,
2013-10-18 13:25:00,61.5,41.7,30.02,WNW,298,0.0,2.0,48,0.00,,,0.01,meteobridge,2013-10-18 17:25:00,
2013-10-18 13:30:00,62.1,41.5,30.02,SE,141,2.0,4.9,47,0.00,,,0.01,meteobridge,2013-10-18 17:30:00,
2013-10-18 13:35:00,62.2,40.6,30.02,SW,220,0.0,6.0,45,0.00,,,0.01,meteobridge,2013-10-18 17:35:00,
2013-10-18 13:40:00,62.6,41.5,30.02,SSW,213,2.0,2.0,46,0.00,,,0.01,meteobridge,2013-10-18 17:40:00,
2013-10-18 13:46:00,63.0,41.4,30.01,SSE,162,0.0,0.0,45,0.00,,,0.01,meteobridge,2013-10-18 17:46:00,
2013-10-18 13:51:00,63.7,42.4,30.01,West,265,2.0,2.9,46,0.00,,,0.01,meteobridge,2013-10-18 17:51:00,
2013-10-18 13:56:00,64.0,41.2,30.01,WSW,257,2.0,6.9,43,0.00,,,0.01,meteobridge,2013-10-18 17:56:00,
2013-10-18 14:01:00,63.9,42.1,30.01,West,275,2.0,6.0,45,0.00,,,0.01,meteobridge,2013-10-18 18:01:00,
2013-10-18 14:06:00,63.9,41.0,30.01,West,278,2.0,2.0,43,0.00,,,0.01,meteobridge,2013-10-18 18:06:00,
2013-10-18 14:11:00,63.9,41.0,30.01,South,169,0.9,6.0,43,0.00,,,0.01,meteobridge,2013-10-18 18:11:00,
2013-10-18 14:16:00,64.0,40.5,30.00,South,188,0.0,0.9,42,0.00,,,0.01,meteobridge,2013-10-18 18:16:00,
2013-10-18 14:21:00,63.5,40.6,30.00,SE,138,2.0,2.0,43,0.00,,,0.01,meteobridge,2013-10-18 18:21:00,
2013-10-18 14:26:00,63.1,40.3,30.00,NNE,27,2.0,2.0,43,0.00,,,0.01,meteobridge,2013-10-18 18:26:00,
2013-10-18 14:31:00,62.8,41.2,30.00,NNE,27,2.0,2.0,45,0.00,,,0.01,meteobridge,2013-10-18 18:31:00,
2013-10-18 14:37:00,63.0,40.6,30.00,NNE,27,0.0,0.0,44,0.00,,,0.01,meteobridge,2013-10-18 18:37:00,
2013-10-18 14:42:00,64.0,41.7,30.00,NNE,25,0.0,2.0,44,0.00,,,0.01,meteobridge,2013-10-18 18:42:00,
2013-10-18 14:47:00,64.8,42.3,29.99,SSE,152,0.0,4.0,44,0.00,,,0.01,meteobridge,2013-10-18 18:47:00,
2013-10-18 14:52:00,64.2,40.1,29.99,North,359,0.0,4.9,41,0.00,,,0.01,meteobridge,2013-10-18 18:52:00,
2013-10-18 14:57:00,64.2,39.4,29.99,WNW,296,2.0,4.9,40,0.00,,,0.01,meteobridge,2013-10-18 18:57:00,
2013-10-18 15:02:00,63.9,39.7,29.98,NW,306,0.0,0.9,41,0.00,,,0.01,meteobridge,2013-10-18 19:02:00,
2013-10-18 15:07:00,63.9,40.3,29.98,West,280,0.9,4.9,42,0.00,,,0.01,meteobridge,2013-10-18 19:07:00,
2013-10-18 15:12:00,64.0,39.9,29.98,WNW,299,0.0,6.9,41,0.00,,,0.01,meteobridge,2013-10-18 19:12:00,
2013-10-18 15:17:00,63.9,39.0,29.98,WNW,294,2.0,2.9,40,0.00,,,0.01,meteobridge,2013-10-18 19:17:00,
2013-10-18 15:23:00,63.9,40.3,29.98,South,181,2.0,4.9,42,0.00,,,0.01,meteobridge,2013-10-18 19:23:00,
2013-10-18 15:28:00,63.9,40.3,29.98,SW,236,0.0,0.0,42,0.00,,,0.01,meteobridge,2013-10-18 19:28:00,
2013-10-18 15:33:00,64.0,40.5,29.98,SW,234,0.0,0.9,42,0.00,,,0.01,meteobridge,2013-10-18 19:33:00,
2013-10-18 15:38:00,64.8,42.3,29.98,West,260,2.9,6.0,44,0.00,,,0.01,meteobridge,2013-10-18 19:38:00,
2013-10-18 15:43:00,65.1,41.5,29.98,West,277,0.0,4.9,42,0.00,,,0.01,meteobridge,2013-10-18 19:43:00,
2013-10-18 15:48:00,65.7,41.9,29.97,WSW,258,0.0,4.9,42,0.00,,,0.01,meteobridge,2013-10-18 19:48:00,
2013-10-18 15:53:00,65.8,41.5,29.97,SW,219,0.0,4.0,41,0.00,,,0.01,meteobridge,2013-10-18 19:53:00,
2013-10-18 15:58:00,65.8,41.5,29.97,West,272,0.0,2.9,41,0.00,,,0.01,meteobridge,2013-10-18 19:58:00,
2013-10-18 16:03:00,65.8,41.5,29.97,WSW,248,0.0,0.9,41,0.00,,,0.01,meteobridge,2013-10-18 20:03:00,
2013-10-18 16:08:00,65.7,40.6,29.97,WSW,250,0.0,0.0,40,0.00,,,0.01,meteobridge,2013-10-18 20:08:00,
2013-10-18 16:13:00,64.8,41.2,29.97,WSW,250,0.0,0.0,42,0.00,,,0.01,meteobridge,2013-10-18 20:13:00,
2013-10-18 16:18:00,65.1,40.8,29.97,West,277,2.9,6.0,41,0.00,,,0.01,meteobridge,2013-10-18 20:18:00,
2013-10-18 16:23:00,65.3,40.3,29.97,South,176,0.0,4.9,40,0.00,,,0.01,meteobridge,2013-10-18 20:23:00,
2013-10-18 16:28:00,65.3,41.5,29.97,NW,306,0.9,0.9,42,0.00,,,0.01,meteobridge,2013-10-18 20:28:00,
2013-10-18 16:34:00,65.5,41.7,29.97,NW,304,0.0,0.0,42,0.00,,,0.01,meteobridge,2013-10-18 20:34:00,
2013-10-18 16:39:00,65.5,41.2,29.97,WNW,296,0.0,0.0,41,0.00,,,0.01,meteobridge,2013-10-18 20:39:00,
2013-10-18 16:44:00,65.3,40.3,29.97,NW,304,0.0,0.0,40,0.00,,,0.01,meteobridge,2013-10-18 20:44:00,
2013-10-18 16:49:00,65.5,41.7,29.96,NW,304,0.0,0.0,42,0.00,,,0.01,meteobridge,2013-10-18 20:49:00,
2013-10-18 16:59:00,65.5,41.2,29.96,NW,308,0.0,0.9,41,0.00,,,0.01,meteobridge,2013-10-18 20:59:00,
2013-10-18 17:04:00,65.7,41.9,29.96,NW,308,0.0,0.0,42,0.00,,,0.01,meteobridge,2013-10-18 21:04:00,
2013-10-18 17:09:00,65.7,42.6,29.96,ESE,109,0.0,2.9,43,0.00,,,0.01,meteobridge,2013-10-18 21:09:00,
2013-10-18 17:14:00,65.1,43.3,29.96,ESE,112,4.0,4.9,45,0.00,,,0.01,meteobridge,2013-10-18 21:14:00,
2013-10-18 17:19:00,64.6,43.3,29.96,East,99,0.0,0.9,46,0.00,,,0.01,meteobridge,2013-10-18 21:19:00,
2013-10-18 17:24:00,63.9,42.6,29.96,ESE,103,0.9,2.9,46,0.00,,,0.01,meteobridge,2013-10-18 21:24:00,
2013-10-18 17:29:00,63.5,42.3,29.96,East,99,0.9,2.9,46,0.00,,,0.01,meteobridge,2013-10-18 21:29:00,
2013-10-18 17:35:00,63.5,43.5,29.96,East,99,0.9,0.9,48,0.00,,,0.01,meteobridge,2013-10-18 21:35:00,
2013-10-18 17:40:00,63.1,43.2,29.96,East,99,0.0,0.0,48,0.00,,,0.01,meteobridge,2013-10-18 21:40:00,
2013-10-18 17:45:00,63.1,43.2,29.96,SSE,150,0.0,2.0,48,0.00,,,0.01,meteobridge,2013-10-18 21:45:00,
2013-10-18 17:50:00,62.8,43.3,29.96,SSE,150,0.9,2.9,49,0.00,,,0.01,meteobridge,2013-10-18 21:50:00,
2013-10-18 17:55:00,62.2,43.9,29.96,SSE,150,0.0,2.0,51,0.00,,,0.01,meteobridge,2013-10-18 21:55:00,
2013-10-18 18:00:00,62.2,43.9,29.96,SSE,150,0.0,0.9,51,0.00,,,0.01,meteobridge,2013-10-18 22:00:00,
2013-10-18 18:05:00,62.1,44.2,29.96,SSE,150,0.0,0.0,52,0.00,,,0.01,meteobridge,2013-10-18 22:05:00,
2013-10-18 18:11:00,62.1,44.2,29.96,SSE,150,0.0,0.0,52,0.00,,,0.01,meteobridge,2013-10-18 22:11:00,
2013-10-18 18:16:00,61.5,44.2,29.96,SSE,150,0.0,0.9,53,0.00,,,0.01,meteobridge,2013-10-18 22:16:00,
2013-10-18 18:21:00,61.3,45.5,29.96,SSE,148,0.0,0.0,56,0.00,,,0.01,meteobridge,2013-10-18 22:21:00,
2013-10-18 18:26:00,61.0,45.7,29.96,SSE,148,0.0,0.0,57,0.00,,,0.01,meteobridge,2013-10-18 22:26:00,
2013-10-18 18:31:00,60.6,45.3,29.96,SSE,148,0.0,0.0,57,0.00,,,0.01,meteobridge,2013-10-18 22:31:00,
2013-10-18 18:37:00,60.4,46.0,29.96,SSE,148,0.0,0.0,59,0.00,,,0.01,meteobridge,2013-10-18 22:37:00,
2013-10-18 18:42:00,59.7,46.2,29.96,SSE,148,0.0,0.0,61,0.00,,,0.01,meteobridge,2013-10-18 22:42:00,
2013-10-18 18:47:00,59.4,46.8,29.97,SSE,148,0.0,0.0,63,0.00,,,0.01,meteobridge,2013-10-18 22:47:00,
2013-10-18 18:52:00,58.8,47.5,29.97,SSE,148,0.0,0.0,66,0.00,,,0.01,meteobridge,2013-10-18 22:52:00,
2013-10-18 18:57:00,58.1,47.1,29.97,SSE,148,0.0,0.0,67,0.00,,,0.01,meteobridge,2013-10-18 22:57:00,
2013-10-18 19:02:00,57.2,47.1,29.97,SSE,148,0.0,0.0,69,0.00,,,0.01,meteobridge,2013-10-18 23:02:00,
2013-10-18 19:08:00,56.3,46.9,29.97,SSE,148,0.0,0.0,71,0.00,,,0.01,meteobridge,2013-10-18 23:08:00,
2013-10-18 19:13:00,55.6,47.1,29.97,SSE,148,0.0,0.0,73,0.00,,,0.01,meteobridge,2013-10-18 23:13:00,
2013-10-18 19:18:00,55.0,46.9,29.98,SSE,148,0.0,0.0,74,0.00,,,0.01,meteobridge,2013-10-18 23:18:00,
2013-10-18 19:23:00,54.1,46.8,29.98,SSE,148,0.0,0.0,76,0.00,,,0.01,meteobridge,2013-10-18 23:23:00,
2013-10-18 19:28:00,53.6,46.9,29.98,SSE,148,0.0,0.0,78,0.00,,,0.01,meteobridge,2013-10-18 23:28:00,
2013-10-18 19:33:00,53.1,46.8,29.98,SSE,148,0.0,0.0,79,0.00,,,0.01,meteobridge,2013-10-18 23:33:00,
2013-10-18 19:39:00,52.5,46.6,29.98,SSE,148,0.0,0.0,80,0.00,,,0.01,meteobridge,2013-10-18 23:39:00,
2013-10-18 19:44:00,52.2,46.6,29.98,SSE,148,0.0,0.0,81,0.00,,,0.01,meteobridge,2013-10-18 23:44:00,
2013-10-18 19:49:00,51.6,46.2,29.98,SSE,148,0.0,0.0,82,0.00,,,0.01,meteobridge,2013-10-18 23:49:00,
2013-10-18 19:54:00,51.4,46.8,29.98,SSE,148,0.0,0.0,84,0.00,,,0.01,meteobridge,2013-10-18 23:54:00,
2013-10-18 19:59:00,51.1,46.4,29.99,SSE,148,0.0,0.0,84,0.00,,,0.01,meteobridge,2013-10-18 23:59:00,
2013-10-18 20:05:00,50.7,46.4,29.99,SSE,148,0.0,0.0,85,0.00,,,0.01,meteobridge,2013-10-19 00:05:00,
2013-10-18 20:10:00,50.4,46.4,29.99,SSE,148,0.0,0.0,86,0.00,,,0.01,meteobridge,2013-10-19 00:10:00,
2013-10-18 20:15:00,50.2,46.4,29.99,SSE,148,0.0,0.0,87,0.00,,,0.01,meteobridge,2013-10-19 00:15:00,
2013-10-18 20:20:00,49.8,46.0,29.99,SSE,148,0.0,0.0,87,0.00,,,0.01,meteobridge,2013-10-19 00:20:00,
2013-10-18 20:25:00,49.6,46.2,29.99,SSE,148,0.0,0.0,88,0.00,,,0.01,meteobridge,2013-10-19 00:25:00,
2013-10-18 20:30:00,49.5,46.0,29.99,SSE,148,0.0,0.0,88,0.00,,,0.01,meteobridge,2013-10-19 00:30:00,
2013-10-18 20:35:00,49.1,46.0,29.99,SSE,148,0.0,0.0,89,0.00,,,0.01,meteobridge,2013-10-19 00:35:00,
2013-10-18 20:40:00,48.9,45.9,29.99,SSE,148,0.0,0.0,89,0.00,,,0.01,meteobridge,2013-10-19 00:40:00,
2013-10-18 20:45:00,48.6,45.7,29.99,SSE,148,0.0,0.0,90,0.00,,,0.01,meteobridge,2013-10-19 00:45:00,
2013-10-18 20:51:00,48.6,46.0,29.99,SSE,148,0.0,0.0,91,0.00,,,0.01,meteobridge,2013-10-19 00:51:00,
2013-10-18 20:56:00,48.4,45.9,29.99,SSE,148,0.0,0.0,91,0.00,,,0.01,meteobridge,2013-10-19 00:56:00,
2013-10-18 21:01:00,48.2,45.7,29.99,SSE,148,0.0,0.0,91,0.00,,,0.01,meteobridge,2013-10-19 01:01:00,
2013-10-18 21:06:00,48.0,45.9,29.99,SSE,148,0.0,0.0,92,0.00,,,0.01,meteobridge,2013-10-19 01:06:00,
2013-10-18 21:12:00,47.7,45.5,29.99,SSE,148,0.0,0.0,92,0.00,,,0.01,meteobridge,2013-10-19 01:12:00,
2013-10-18 21:17:00,47.7,45.5,29.99,SSE,148,0.0,0.0,92,0.00,,,0.01,meteobridge,2013-10-19 01:17:00,
2013-10-18 21:22:00,47.5,45.5,29.99,SSE,148,0.0,0.0,93,0.00,,,0.01,meteobridge,2013-10-19 01:22:00,
2013-10-18 21:27:00,47.3,45.3,29.99,SSE,148,0.0,0.0,93,0.00,,,0.01,meteobridge,2013-10-19 01:27:00,
2013-10-18 21:32:00,47.1,45.1,29.99,SSE,148,0.0,0.0,93,0.00,,,0.01,meteobridge,2013-10-19 01:32:00,
2013-10-18 21:37:00,46.9,45.0,29.99,SSE,148,0.0,0.0,93,0.00,,,0.01,meteobridge,2013-10-19 01:37:00,
2013-10-18 21:43:00,46.8,45.1,29.99,SSE,148,0.0,0.0,94,0.00,,,0.01,meteobridge,2013-10-19 01:43:00,
2013-10-18 21:48:00,46.8,45.1,29.99,SSE,148,0.0,0.0,94,0.00,,,0.01,meteobridge,2013-10-19 01:48:00,
2013-10-18 21:53:00,46.6,45.0,29.99,SSE,148,0.0,0.0,94,0.00,,,0.01,meteobridge,2013-10-19 01:53:00,
2013-10-18 21:58:00,46.4,44.8,29.99,SSE,148,0.0,0.0,94,0.00,,,0.01,meteobridge,2013-10-19 01:58:00,
2013-10-18 22:03:00,46.2,44.8,29.99,SSE,148,0.0,0.0,95,0.00,,,0.01,meteobridge,2013-10-19 02:03:00,
2013-10-18 22:09:00,46.0,44.6,29.99,SSE,148,0.0,0.0,95,0.00,,,0.01,meteobridge,2013-10-19 02:09:00,
2013-10-18 22:14:00,46.0,44.6,29.99,SSE,148,0.0,0.0,95,0.00,,,0.01,meteobridge,2013-10-19 02:14:00,
2013-10-18 22:19:00,45.9,44.4,29.98,SSE,148,0.0,0.0,95,0.00,,,0.01,meteobridge,2013-10-19 02:19:00,
2013-10-18 22:24:00,45.9,44.4,29.98,SSE,148,0.0,0.0,95,0.00,,,0.01,meteobridge,2013-10-19 02:24:00,
2013-10-18 22:29:00,45.7,44.4,29.98,SSE,148,0.0,0.0,95,0.00,,,0.01,meteobridge,2013-10-19 02:29:00,
2013-10-18 22:35:00,45.3,44.1,29.98,SSE,148,0.0,0.0,95,0.00,,,0.01,meteobridge,2013-10-19 02:35:00,
2013-10-18 22:40:00,45.3,44.1,29.98,SSE,148,0.0,0.0,95,0.00,,,0.01,meteobridge,2013-10-19 02:40:00,
2013-10-18 22:45:00,45.1,43.9,29.99,SSE,148,0.0,0.0,95,0.00,,,0.01,meteobridge,2013-10-19 02:45:00,
2013-10-18 22:50:00,45.0,43.7,29.99,SSE,148,0.0,0.0,95,0.00,,,0.01,meteobridge,2013-10-19 02:50:00,
2013-10-18 22:55:00,45.0,43.7,29.99,SSE,148,0.0,0.0,95,0.00,,,0.01,meteobridge,2013-10-19 02:55:00,
2013-10-18 23:00:00,44.8,43.5,29.99,SSE,148,0.0,0.0,95,0.00,,,0.01,meteobridge,2013-10-19 03:00:00,
2013-10-18 23:06:00,44.8,43.5,29.99,SSE,148,0.0,0.0,95,0.00,,,0.01,meteobridge,2013-10-19 03:06:00,
2013-10-18 23:11:00,44.6,43.5,29.99,SSE,148,0.0,0.0,96,0.00,,,0.01,meteobridge,2013-10-19 03:11:00,
2013-10-18 23:16:00,44.6,43.5,29.98,SSE,148,0.0,0.0,96,0.00,,,0.01,meteobridge,2013-10-19 03:16:00,
2013-10-18 23:21:00,44.4,43.3,29.98,SSE,148,0.0,0.0,96,0.00,,,0.01,meteobridge,2013-10-19 03:21:00,
2013-10-18 23:26:00,44.2,43.2,29.98,SSE,148,0.0,0.0,96,0.00,,,0.01,meteobridge,2013-10-19 03:26:00,
2013-10-18 23:31:00,44.2,43.2,29.98,SSE,148,0.0,0.0,96,0.00,,,0.01,meteobridge,2013-10-19 03:31:00,
2013-10-18 23:37:00,44.1,43.0,29.98,SSE,148,0.0,0.0,96,0.00,,,0.01,meteobridge,2013-10-19 03:37:00,
2013-10-18 23:42:00,43.9,42.8,29.98,SSE,148,0.0,0.0,96,0.00,,,0.01,meteobridge,2013-10-19 03:42:00,
2013-10-18 23:47:00,43.9,42.8,29.98,SSE,148,0.0,0.0,96,0.00,,,0.01,meteobridge,2013-10-19 03:47:00,
2013-10-18 23:52:00,43.5,42.4,29.98,SSE,148,0.0,0.0,96,0.00,,,0.01,meteobridge,2013-10-19 03:52:00,
2013-10-18 23:57:00,43.5,42.4,29.98,SSE,148,0.0,0.0,96,0.00,,,0.01,meteobridge,2013-10-19 03:57:00,